LUCH 5A (SDCM/PRN 140)

Last updated on Thu Jul 03 2025 00:03:25 GMT+0000 (Coordinated Universal Time)

1 37951U 11074B 25183.52830727 -.00000046 00000+0 00000+0 0 9990 2 37951 7.8639 79.0505 0003467 41.7788 157.2007 1.00269345 49545
UTC large
Height (km)
Speed (km/s)
/
Latitude / Longitude
Inclination (degrees)
Orbital Period (minutes)
Azimuth
Elevation
Range (km)
Doppler Factor

Next 0 passes for location: London (51.5072 / 0.1276)

Sorry there are no passes over London.